XBRLQ MMCU-XAMT

Flight info

Callsign XBRLQ
Flight time N/A
Altitude 8500
Route DCT XAMT
Aircraft C172/L-S/C

Departure

Time 2026-04-23 22:23
Airport General Roberto Fierro Villalobos International Airport (MMCU)

Arrival

Time N/A
Airport XAMT
Time Latitude Longitude Altitude Speed Heading
2026-04-23 22:12 28.70221 -105.96877 4441 ft 0 kts 192°
2026-04-23 22:18 28.70204 -105.96862 4441 ft 11 kts 102°
2026-04-23 22:19 28.70243 -105.96796 4439 ft 8 kts 41°
2026-04-23 22:19 28.70249 -105.96777 4439 ft 0 kts 91°
2026-04-23 22:19 28.70255 -105.96748 4439 ft 13 kts 39°
2026-04-23 22:20 28.70383 -105.96721 4437 ft 23 kts
2026-04-23 22:20 28.70516 -105.96711 4432 ft 16 kts 332°
2026-04-23 22:20 28.70537 -105.96762 4432 ft 17 kts 188°
2026-04-23 22:20 28.70477 -105.96699 4433 ft 15 kts 169°
2026-04-23 22:21 28.70440 -105.96583 4434 ft 24 kts 73°
2026-04-23 22:21 28.70628 -105.96500 4430 ft 35 kts
2026-04-23 22:21 28.70896 -105.96441 4424 ft 42 kts 11°
2026-04-23 22:21 28.71179 -105.96379 4416 ft 28 kts
2026-04-23 22:22 28.71326 -105.96353 4411 ft 13 kts 283°
2026-04-23 22:22 28.71291 -105.96360 4412 ft 12 kts 180°
2026-04-23 22:22 28.71099 -105.96398 4419 ft 48 kts 191°
2026-04-23 22:22 28.70655 -105.96497 4440 ft 80 kts 191°
2026-04-23 22:23 28.70052 -105.96626 4535 ft 92 kts 190°
2026-04-23 22:23 28.69442 -105.96754 4738 ft 91 kts 192°
2026-04-23 22:23 28.68818 -105.96910 4937 ft 90 kts 192°
2026-04-23 22:23 28.68230 -105.97101 5125 ft 88 kts 194°
2026-04-23 22:24 28.67678 -105.97370 5291 ft 89 kts 214°
2026-04-23 22:24 28.67348 -105.97965 5469 ft 95 kts 256°
2026-04-23 22:24 28.67422 -105.98772 5519 ft 109 kts 274°
2026-04-23 22:24 28.67537 -105.99646 5637 ft 113 kts 274°
2026-04-23 22:25 28.67696 -106.00520 5753 ft 116 kts 294°
2026-04-23 22:25 28.68267 -106.01148 5894 ft 110 kts 298°
2026-04-23 22:25 28.68450 -106.01998 5964 ft 108 kts 276°
2026-04-23 22:25 28.68530 -106.02821 6099 ft 107 kts 274°
2026-04-23 22:26 28.68664 -106.03656 6218 ft 106 kts 276°
2026-04-23 22:26 28.68809 -106.04470 6336 ft 103 kts 276°
2026-04-23 22:26 28.68951 -106.05261 6453 ft 101 kts 276°
2026-04-23 22:26 28.69090 -106.06028 6580 ft 98 kts 276°
2026-04-23 22:27 28.69232 -106.06801 6705 ft 101 kts 277°
2026-04-23 22:27 28.69379 -106.07589 6829 ft 101 kts 276°
2026-04-23 22:27 28.69523 -106.08367 6953 ft 100 kts 276°
2026-04-23 22:27 28.69665 -106.09133 7075 ft 99 kts 276°
2026-04-23 22:28 28.69808 -106.09899 7198 ft 98 kts 277°
2026-04-23 22:28 28.69952 -106.10658 7320 ft 97 kts 276°
2026-04-23 22:28 28.70095 -106.11408 7442 ft 96 kts 276°
2026-04-23 22:28 28.70238 -106.12152 7565 ft 97 kts 277°
2026-04-23 22:29 28.70381 -106.12904 7695 ft 100 kts 277°
2026-04-23 22:29 28.70530 -106.13698 7826 ft 104 kts 277°
2026-04-23 22:29 28.70679 -106.14517 7969 ft 107 kts 276°
2026-04-23 22:29 28.70793 -106.15347 8106 ft 104 kts 273°
2026-04-23 22:30 28.70902 -106.16162 8258 ft 103 kts 274°
2026-04-23 22:30 28.71012 -106.16956 8408 ft 100 kts 273°
2026-04-23 22:30 28.71125 -106.17764 8460 ft 109 kts 273°
2026-04-23 22:30 28.71223 -106.18638 8496 ft 116 kts 274°
2026-04-23 22:31 28.71337 -106.19568 8533 ft 121 kts 273°
2026-04-23 22:31 28.71456 -106.20534 8557 ft 124 kts 274°
2026-04-23 22:31 28.71575 -106.21503 8596 ft 125 kts 274°
2026-04-23 22:31 28.71698 -106.22485 8624 ft 125 kts 274°
2026-04-23 22:32 28.71820 -106.23468 8652 ft 126 kts 274°
2026-04-23 22:32 28.71945 -106.24483 8570 ft 133 kts 274°
2026-04-23 22:32 28.72075 -106.25552 8465 ft 138 kts 274°
2026-04-23 22:32 28.72204 -106.26619 8460 ft 133 kts 274°
2026-04-23 22:33 28.72330 -106.27632 8469 ft 130 kts 274°
2026-04-23 22:33 28.72401 -106.28647 8465 ft 128 kts 263°
2026-04-23 22:33 28.72343 -106.29661 8466 ft 130 kts 262°
2026-04-23 22:33 28.72284 -106.30692 8465 ft 130 kts 263°
2026-04-23 22:34 28.72232 -106.31693 8461 ft 123 kts 262°
2026-04-23 22:34 28.72179 -106.32663 8461 ft 122 kts 262°
2026-04-23 22:34 28.72126 -106.33617 8460 ft 122 kts 262°
2026-04-23 22:34 28.72072 -106.34575 8453 ft 118 kts 262°
2026-04-23 22:35 28.72023 -106.35497 8485 ft 113 kts 262°
2026-04-23 22:35 28.71977 -106.36386 8608 ft 112 kts 261°
2026-04-23 22:35 28.71939 -106.37277 8730 ft 112 kts 263°
2026-04-23 22:35 28.71903 -106.38154 8845 ft 110 kts 263°
2026-04-23 22:36 28.71869 -106.39004 8974 ft 106 kts 262°
2026-04-23 22:36 28.71827 -106.39858 9094 ft 108 kts 261°
2026-04-23 22:36 28.71786 -106.40702 9218 ft 105 kts 262°
2026-04-23 22:36 28.71753 -106.41543 9333 ft 104 kts 262°
2026-04-23 22:37 28.71726 -106.42352 9459 ft 102 kts 264°
2026-04-23 22:37 28.71708 -106.43154 9578 ft 99 kts 261°
2026-04-23 22:37 28.71672 -106.43940 9697 ft 99 kts 262°
2026-04-23 22:37 28.71643 -106.44750 9753 ft 107 kts 263°
2026-04-23 22:38 28.71606 -106.45620 9763 ft 112 kts 262°
2026-04-23 22:38 28.71563 -106.46512 9770 ft 116 kts 262°
2026-04-23 22:38 28.71519 -106.47459 9773 ft 121 kts 262°
2026-04-23 22:38 28.71468 -106.48430 9771 ft 125 kts 262°
2026-04-23 22:39 28.71410 -106.49447 9772 ft 129 kts 262°
2026-04-23 22:39 28.71351 -106.50469 9769 ft 133 kts 262°
2026-04-23 22:39 28.71290 -106.51507 9773 ft 131 kts 262°
2026-04-23 22:39 28.71227 -106.52549 9765 ft 132 kts 262°
2026-04-23 22:40 28.71166 -106.53587 9766 ft 130 kts 262°
2026-04-23 22:40 28.71106 -106.54620 9765 ft 130 kts 262°
2026-04-23 22:40 28.70990 -106.56665 9767 ft 130 kts 262°
2026-04-23 22:41 28.70933 -106.57684 9769 ft 131 kts 262°
2026-04-23 22:41 28.70877 -106.58729 9760 ft 129 kts 263°
2026-04-23 22:41 28.70830 -106.59746 9766 ft 128 kts 262°
2026-04-23 22:41 28.70776 -106.60765 9759 ft 128 kts 262°
2026-04-23 22:42 28.70723 -106.61770 9765 ft 129 kts 262°
2026-04-23 22:42 28.70666 -106.62788 9762 ft 128 kts 262°
2026-04-23 22:42 28.70619 -106.63797 9758 ft 125 kts 263°
2026-04-23 22:42 28.70580 -106.64785 9760 ft 127 kts 263°
2026-04-23 22:43 28.70535 -106.65789 9757 ft 125 kts 262°
2026-04-23 22:43 28.70490 -106.66784 9757 ft 126 kts 263°
2026-04-23 22:43 28.70447 -106.67782 9759 ft 126 kts 263°
2026-04-23 22:43 28.70403 -106.68787 9760 ft 127 kts 263°
2026-04-23 22:44 28.70357 -106.69785 9762 ft 128 kts 263°
2026-04-23 22:44 28.70312 -106.70795 9747 ft 128 kts 263°
2026-04-23 22:44 28.70265 -106.71824 9675 ft 132 kts 263°
2026-04-23 22:44 28.70218 -106.72878 9563 ft 135 kts 263°
2026-04-23 22:45 28.70166 -106.73964 9440 ft 138 kts 263°
2026-04-23 22:45 28.70119 -106.75039 9316 ft 137 kts 263°
2026-04-23 22:45 28.70065 -106.76124 9200 ft 138 kts 263°
2026-04-23 22:45 28.70009 -106.77230 9069 ft 140 kts 263°
2026-04-23 22:46 28.69951 -106.78317 8945 ft 136 kts 262°
2026-04-23 22:46 28.69890 -106.79398 8820 ft 136 kts 262°
2026-04-23 22:46 28.69690 -106.80433 8697 ft 134 kts 244°
2026-04-23 22:46 28.69208 -106.81332 8566 ft 127 kts 230°
2026-04-23 22:47 28.68684 -106.82120 8260 ft 129 kts 231°
2026-04-23 22:47 28.68197 -106.82939 7981 ft 121 kts 233°
2026-04-23 22:47 28.67738 -106.83729 7656 ft 114 kts 235°
2026-04-23 22:47 28.67385 -106.84522 7376 ft 108 kts 242°
2026-04-23 22:48 28.67114 -106.85273 7222 ft 101 kts 249°
2026-04-23 22:48 28.67093 -106.86049 7099 ft 97 kts 272°
2026-04-23 22:48 28.67175 -106.86775 7082 ft 83 kts 272°
2026-04-23 22:48 28.67253 -106.87365 7139 ft 74 kts 272°
2026-04-23 22:49 28.67336 -106.87936 7216 ft 71 kts 272°
2026-04-23 22:49 28.67417 -106.88465 7292 ft 64 kts 272°
2026-04-23 22:49 28.67495 -106.88924 7352 ft 56 kts 272°
2026-04-23 22:49 28.67569 -106.89400 7327 ft 79 kts 270°
2026-04-23 22:50 28.67402 -106.89919 7379 ft 79 kts 202°
2026-04-23 22:50 28.66767 -106.89993 7272 ft 101 kts 181°
2026-04-23 22:50 28.66060 -106.89985 7338 ft 101 kts 179°
2026-04-23 22:50 28.65301 -106.90006 7243 ft 113 kts 181°
2026-04-23 22:51 28.64539 -106.90026 7335 ft 107 kts 181°
2026-04-23 22:51 28.63814 -106.90067 7398 ft 104 kts 183°
2026-04-23 22:51 28.63084 -106.90196 7391 ft 108 kts 204°
2026-04-23 22:51 28.62716 -106.90919 7404 ft 117 kts 269°
2026-04-23 22:52 28.62848 -106.91773 7627 ft 103 kts 268°
2026-04-23 22:52 28.62886 -106.92673 7545 ft 117 kts 270°
2026-04-23 22:52 28.62959 -106.93608 7517 ft 121 kts 273°
2026-04-23 22:52 28.63091 -106.94539 7571 ft 119 kts 275°
2026-04-23 22:53 28.63394 -106.95382 7516 ft 121 kts 319°
2026-04-23 22:53 28.64172 -106.95626 7500 ft 117 kts
2026-04-23 22:53 28.64982 -106.95588 7430 ft 115 kts
2026-04-23 22:53 28.65678 -106.95202 7306 ft 114 kts 57°
2026-04-23 22:54 28.65795 -106.94349 7068 ft 112 kts 106°
2026-04-23 22:54 28.65626 -106.93521 6914 ft 103 kts 102°
2026-04-23 22:54 28.65578 -106.92763 6790 ft 90 kts 94°
2026-04-23 22:54 28.65574 -106.92073 6680 ft 85 kts 90°
2026-04-23 22:55 28.65581 -106.91412 6616 ft 82 kts 90°
2026-04-23 22:55 28.65585 -106.90803 6533 ft 68 kts 89°
2026-04-23 22:55 28.65584 -106.90351 6526 ft 54 kts 90°
2026-04-23 22:55 28.65584 -106.89790 6537 ft 85 kts 90°
2026-04-23 22:56 28.65576 -106.89067 6635 ft 94 kts 91°
2026-04-23 22:56 28.65569 -106.88306 6754 ft 99 kts 92°
2026-04-23 22:56 28.65564 -106.87501 6864 ft 102 kts 93°
2026-04-23 22:56 28.65527 -106.86692 6993 ft 101 kts 110°
2026-04-23 22:57 28.65094 -106.86109 7119 ft 98 kts 152°
2026-04-23 22:57 28.64387 -106.86006 7113 ft 107 kts 189°
2026-04-23 22:57 28.63635 -106.86181 7148 ft 110 kts 191°
2026-04-23 22:57 28.62895 -106.86377 7220 ft 110 kts 193°
2026-04-23 22:58 28.62319 -106.86955 7237 ft 119 kts 248°
2026-04-23 22:58 28.62396 -106.87837 7565 ft 95 kts 281°
2026-04-23 22:58 28.62585 -106.88492 7850 ft 83 kts 283°
2026-04-23 22:58 28.62796 -106.89202 7811 ft 111 kts 283°
2026-04-23 22:59 28.62931 -106.89805 7735 ft 124 kts 278°
2026-04-23 22:59 28.63130 -106.90795 7663 ft 132 kts 279°
2026-04-23 22:59 28.63409 -106.92184 7540 ft 139 kts 279°
2026-04-23 22:59 28.63627 -106.93271 7469 ft 140 kts 279°
2026-04-23 23:00 28.63767 -106.93964 7468 ft 131 kts 279°
2026-04-23 23:00 28.64259 -106.94776 7464 ft 128 kts 330°
2026-04-23 23:00 28.65145 -106.94849 7352 ft 130 kts
2026-04-23 23:00 28.65863 -106.94377 7321 ft 113 kts 70°
2026-04-23 23:01 28.65721 -106.93289 7015 ft 107 kts 107°
2026-04-23 23:01 28.65619 -106.92736 6882 ft 104 kts 101°
2026-04-23 23:01 28.65588 -106.92010 6713 ft 82 kts 93°
2026-04-23 23:01 28.65582 -106.91410 6627 ft 77 kts 92°
2026-04-23 23:02 28.65583 -106.90789 6535 ft 72 kts 90°
2026-04-23 23:02 28.65582 -106.90319 6525 ft 50 kts 90°
2026-04-23 23:02 28.65578 -106.90108 6528 ft 6 kts 119°
2026-04-23 23:02 28.65584 -106.90103 6528 ft 2 kts 321°
2026-04-23 23:03 28.65585 -106.90183 6526 ft 20 kts 268°
2026-04-23 23:03 28.65585 -106.90411 6527 ft 36 kts 270°
2026-04-23 23:03 28.65504 -106.90632 6532 ft 22 kts 263°
2026-04-23 23:03 28.65503 -106.90665 6532 ft 0 kts 269°